Location: McFarlands Corners
(41.4117°N, 81.3382°W)
Time: 04:58:20
(UTC+00:00)

A-11 Canister half - Pass Details

Date: 22 February 2026
Orbit: 1524 x 1683 km, 47.3° (Epoch: 14 March)

Event Time Altitude Azimuth Distance (km) Brightness Sun altitude
Rises 02:03:04 0° 295° (WNW) 4,682 12.6 -33.5°
Reaches altitude 10° 02:06:06 10° 295° (WNW) 3,694 11.8 -34.0°
Maximum altitude 02:15:25 88° 209° (SSW) 1,534 8.8 -35.7°
Enters shadow 02:15:35 87° 159° (SSE) 1,536 8.8 -35.7°
